Location: Izdebno
(52.6670°N, 16.2170°E)
Time: 18:19:41
(UTC+01:00)

Transit 2A - Pass Details

Date: 30 January 2023
Orbit: 591 x 964 km, 66.7° (Epoch: 21 March)

Event Time Altitude Azimuth Distance (km) Brightness Sun altitude
Rises 19:42:32 0° 246° (WSW) 3,059 10.0 -28.1°
Reaches altitude 10° 19:44:53 10° 254° (WSW) 2,200 9.2 -28.4°
Maximum altitude 19:49:39 41° 324° (NW) 1,118 7.1 -29.2°
Enters shadow 19:50:46 36° 354° (N) 1,225 7.1 -29.3°
Drops below altitude 10° 19:54:56 10° 34° (NE) 2,450 - -29.9°
Sets 19:57:41 0° 42° (NE) 3,450 - -30.4°
